TimeEDT,TemperatureF,Dew PointF,Humidity,Sea Level PressureIn,VisibilityMPH,Wind Direction,Wind SpeedMPH,Gust SpeedMPH,PrecipitationIn,Events,Conditions,WindDirDegrees,DateUTC
12:53 AM,69.1,57.9,68,30.08,10.0,North,-9999.0,-,N/A,,Clear,0,2013-08-21 04:53:00
1:02 AM,68.0,59.0,73,30.08,10.0,Calm,Calm,-,N/A,,Clear,0,2013-08-21 05:02:00
1:53 AM,64.0,59.0,84,30.08,10.0,Calm,Calm,-,N/A,,Clear,0,2013-08-21 05:53:00
2:53 AM,64.0,59.0,84,30.09,10.0,Calm,Calm,-,N/A,,Clear,0,2013-08-21 06:53:00
3:53 AM,63.0,60.1,90,30.09,9.0,Calm,Calm,-,N/A,,Clear,0,2013-08-21 07:53:00
4:53 AM,61.0,60.1,97,30.09,5.0,Calm,Calm,-,N/A,,Clear,0,2013-08-21 08:53:00
5:53 AM,61.0,59.0,93,30.10,6.0,Calm,Calm,-,N/A,,Clear,0,2013-08-21 09:53:00
6:53 AM,61.0,59.0,93,30.11,5.0,Calm,Calm,-,N/A,,Clear,0,2013-08-21 10:53:00
7:53 AM,69.1,62.1,78,30.12,10.0,Calm,Calm,-,N/A,,Clear,0,2013-08-21 11:53:00
8:53 AM,72.0,64.0,76,30.12,10.0,SE,8.1,-,N/A,,Clear,130,2013-08-21 12:53:00
9:53 AM,73.0,64.9,76,30.11,10.0,SE,8.1,-,N/A,,Clear,140,2013-08-21 13:53:00
10:53 AM,73.9,64.9,73,30.10,10.0,SE,13.8,-,N/A,,Clear,140,2013-08-21 14:53:00
11:53 AM,77.0,64.9,66,30.09,10.0,SE,11.5,-,N/A,,Clear,140,2013-08-21 15:53:00
12:53 PM,80.1,66.0,62,30.07,10.0,ESE,6.9,-,N/A,,Mostly Cloudy,110,2013-08-21 16:53:00
1:53 PM,86.0,60.1,41,30.06,10.0,Variable,6.9,-,N/A,,Partly Cloudy,0,2013-08-21 17:53:00
2:53 PM,88.0,61.0,40,30.03,10.0,SSW,5.8,-,N/A,,Partly Cloudy,210,2013-08-21 18:53:00
3:53 PM,88.0,62.1,42,30.01,10.0,West,5.8,-,N/A,,Scattered Clouds,270,2013-08-21 19:53:00
4:53 PM,84.0,62.1,47,30.01,10.0,WSW,4.6,-,N/A,,Overcast,240,2013-08-21 20:53:00
5:53 PM,84.9,62.1,46,30.00,10.0,Variable,3.5,-,N/A,,Clear,0,2013-08-21 21:53:00
6:53 PM,79.0,66.0,64,29.98,10.0,Calm,Calm,-,N/A,,Clear,0,2013-08-21 22:53:00
7:53 PM,72.0,66.0,81,29.96,10.0,Calm,Calm,-,N/A,,Clear,0,2013-08-21 23:53:00
8:53 PM,71.1,64.0,78,29.97,10.0,Calm,Calm,-,N/A,,Clear,0,2013-08-22 00:53:00
9:53 PM,71.1,62.1,73,29.97,10.0,Calm,Calm,-,N/A,,Clear,0,2013-08-22 01:53:00
10:53 PM,70.0,61.0,73,29.98,10.0,Variable,3.5,-,N/A,,Clear,0,2013-08-22 02:53:00
11:53 PM,70.0,61.0,73,29.97,10.0,Calm,Calm,-,N/A,,Clear,0,2013-08-22 03:53:00